Вернуться в каталог

NAVSTAR 49

USA 154

АктивенНавигацияHEO
NORAD 26605·PAYLOAD·🇺🇸 United States

Запущен Nov 10, 2000 с Cape Canaveral Space Force Station

Loading…

Ближайшие Пролёты (ближайшие 24 часа)

TLE

СвежийSource: Space-Track

Эпоха: Sep 14, 2026, 15:00 UTC

1 26605U 00071A   26257.62500000 -.00000012  00000-0  00000-0 0  9996
2 26605  55.6812  91.4225 0174436 267.0192  80.0915  2.00561777189302

Отслеживайте NAVSTAR 49 в реальном времени с AllMySat

Download on the App Store